Regional Weather Roundup
Issued by NWS

Home | Current Version | Previous Version | Text Only | Print | Product List | Glossary Off
Versions: 1 2 3 4 5 6 7 8 9 10 11 12 13 14 15 16 17 18 19 20 21 22 23 24 25 26 27 28 29 30 31 32 33 34 35 36 37 38 39 40 41 42 43 44 45 46 47 48 49 50

000
ASUS45 KSLC 221610
RWRUT

UTAH REGIONAL WEATHER ROUNDUP
NATIONAL WEATHER SERVICE SALT LAKE CITY UT
1000 AM MDT FRI AUG 22 2014

UTZ001>011-023>025-221700-

NORTHERN UTAH

CITY           SKY/WX    TMP DP  RH WIND       PRES   REMARKS
HILL AFB       PTSUNNY   67  49  53 E12       30.03S
LOGAN          MOSUNNY   62  54  74 CALM      30.05S
OGDEN          CLOUDY    69  49  48 SE5       30.01S
PROVO AIRPORT  MOSUNNY   72  46  40 SE6       30.06F
SALT LAKE CITY CLOUDY    72  47  40 S14       29.99S
VERNAL         MOSUNNY   64  48  56 SE5       30.13S
WENDOVER       CLOUDY    70  48  46 S3        30.00S
HEBER CITY     MOSUNNY   64  48  55 NW3       30.09F
WEST JORDAN    MOSUNNY   70  55  60 S17G25    30.02F

$$

UTZ012>022-026-027-221700-

SOUTHERN UTAH

CITY           SKY/WX    TMP DP  RH WIND       PRES   REMARKS
BRYCE CANYON   MOSUNNY   59  47  64 CALM      30.27F
CEDAR CITY     SUNNY     66  49  54 SW12      30.14F
MILFORD        SUNNY     70  49  47 S17G28    30.09F
MOAB/CYNLANDS  PTSUNNY   74  49  41 S8        30.07S
PRICE          MOSUNNY   68  43  40 SE9       30.15S
ST GEORGE      MOSUNNY   72  54  53 CALM      30.06S
KANAB            N/A     66  52  59 SE3       30.19S

$$

REGIONAL REPORTS     COLORADO/ARIZONA

CITY           SKY/WX    TMP DP  RH WIND       PRES   REMARKS
CRAIG, CO      MOSUNNY   70  49  47 NE7       30.17F
GRAND JUNCTION MOSUNNY   72  50  45 SE17      30.11F
RIFLE          PTSUNNY   68  50  52 E10       30.16F
MONTROSE       PTSUNNY   63  55  75 SE3       30.21S
CORTEZ         SUNNY     63  55  75 W3        30.22S
PAGE, AZ       PTSUNNY   70  57  63 VRB5      30.12S
GRAND CANYON   SUNNY     59  54  83 SW6       30.26S
KINGMAN        SUNNY     72  57  59 S3        30.09S
FLAGSTAFF      PTSUNNY   56  50  80 S7        30.29R

$$

REGIONAL REPORTS    NEVADA/IDAHO/WYOMING

CITY           SKY/WX    TMP DP  RH WIND       PRES   REMARKS
LAS VEGAS, NV  SUNNY     78  52  40 SW3       29.96S
ELY            SUNNY     67  45  45 S16       30.12F
ELKO           CLOUDY    63  47  55 S5        30.02R
POCATELLO, ID  TSTM      55  53  93 S8        30.06S
BURLEY         CLOUDY    59  55  87 E8        29.97F
EVANSTON, WY   PTSUNNY   55  48  77 N6        30.18F
ROCK SPRINGS   MOSUNNY   62  44  51 NE6       30.17F

$$


USA.gov is the U.S. government's official web portal to all federal, state and local government web resources and services.